Time,TemperatureF,DewpointF,PressureIn,WindDirection,WindDirectionDegrees,WindSpeedMPH,WindSpeedGustMPH,Humidity,HourlyPrecipIn,Conditions,Clouds,dailyrainin,SolarRadiationWatts/m^2,SoftwareType,DateUTC
2013-04-25 00:00:00,35.4,31.6,30.19,West,278,5.0,5.0,86,0.00,,,0.00,0,Wunderground v.1.15,2013-04-25 05:00:00,
2013-04-25 00:10:00,35.3,31.5,30.19,WNW,288,5.0,5.0,86,0.00,,,0.00,0,Wunderground v.1.15,2013-04-25 05:10:00,
2013-04-25 00:20:00,35.1,31.6,30.19,WNW,282,5.0,5.0,87,0.00,,,0.00,0,Wunderground v.1.15,2013-04-25 05:20:00,
2013-04-25 00:30:00,34.7,30.9,30.20,WNW,296,4.0,4.0,86,0.00,,,0.00,0,Wunderground v.1.15,2013-04-25 05:30:00,
2013-04-25 00:40:00,34.5,31.0,30.20,West,277,4.0,4.0,87,0.00,,,0.00,0,Wunderground v.1.15,2013-04-25 05:40:00,
2013-04-25 00:50:00,34.1,30.6,30.20,WNW,286,4.0,4.0,87,0.00,,,0.00,0,Wunderground v.1.15,2013-04-25 05:50:00,
2013-04-25 01:00:00,33.8,30.3,30.20,NW,304,4.0,4.0,87,0.00,,,0.00,0,Wunderground v.1.15,2013-04-25 06:00:00,
2013-04-25 01:10:00,33.8,30.3,30.20,West,280,4.0,4.0,87,0.00,,,0.00,0,Wunderground v.1.15,2013-04-25 06:10:00,
2013-04-25 01:20:00,33.3,29.8,30.20,WNW,300,4.0,4.0,87,0.00,,,0.00,0,Wunderground v.1.15,2013-04-25 06:20:00,
2013-04-25 01:30:00,33.0,29.8,30.20,WNW,292,3.0,3.0,88,0.00,,,0.00,0,Wunderground v.1.15,2013-04-25 06:30:00,
2013-04-25 01:40:00,32.9,29.7,30.20,West,269,3.0,5.0,88,0.00,,,0.00,0,Wunderground v.1.15,2013-04-25 06:40:00,
2013-04-25 01:50:00,32.9,29.7,30.20,WNW,287,4.0,7.0,88,0.00,,,0.00,0,Wunderground v.1.15,2013-04-25 06:50:00,
2013-04-25 02:00:00,33.1,29.9,30.20,WSW,238,4.0,5.0,88,0.00,,,0.00,0,Wunderground v.1.15,2013-04-25 07:00:00,
2013-04-25 02:10:00,32.9,29.7,30.21,WSW,242,3.0,3.0,88,0.00,,,0.00,0,Wunderground v.1.15,2013-04-25 07:10:00,
2013-04-25 02:20:00,32.8,29.6,30.21,West,271,4.0,5.0,88,0.00,,,0.00,0,Wunderground v.1.15,2013-04-25 07:20:00,
2013-04-25 02:30:00,32.6,29.7,30.21,West,259,4.0,4.0,89,0.00,,,0.00,0,Wunderground v.1.15,2013-04-25 07:30:00,
2013-04-25 02:40:00,32.6,29.7,30.21,SW,217,4.0,4.0,89,0.00,,,0.00,0,Wunderground v.1.15,2013-04-25 07:40:00,
2013-04-25 02:50:00,32.5,29.6,30.21,WNW,289,4.0,4.0,89,0.00,,,0.00,0,Wunderground v.1.15,2013-04-25 07:50:00,
2013-04-25 03:00:00,32.4,29.5,30.21,West,281,4.0,4.0,89,0.00,,,0.00,0,Wunderground v.1.15,2013-04-25 08:00:00,
2013-04-25 03:10:00,32.2,29.3,30.21,West,259,4.0,6.0,89,0.00,,,0.00,0,Wunderground v.1.15,2013-04-25 08:10:00,
2013-04-25 03:20:00,32.1,28.9,30.21,WNW,285,4.0,7.0,88,0.00,,,0.00,0,Wunderground v.1.15,2013-04-25 08:20:00,
2013-04-25 03:30:00,32.0,29.1,30.21,WNW,283,4.0,4.0,89,0.00,,,0.00,0,Wunderground v.1.15,2013-04-25 08:30:00,
2013-04-25 03:40:00,32.2,29.0,30.21,WSW,257,4.0,4.0,88,0.00,,,0.00,0,Wunderground v.1.15,2013-04-25 08:40:00,
2013-04-25 03:50:00,32.4,29.2,30.22,West,275,4.0,4.0,88,0.00,,,0.00,0,Wunderground v.1.15,2013-04-25 08:50:00,
2013-04-25 04:00:00,32.4,29.2,30.22,West,274,4.0,4.0,88,0.00,,,0.00,0,Wunderground v.1.15,2013-04-25 09:00:00,
2013-04-25 04:10:00,32.2,29.0,30.22,West,280,4.0,4.0,88,0.00,,,0.00,0,Wunderground v.1.15,2013-04-25 09:10:00,
2013-04-25 04:20:00,32.1,28.9,30.22,SSW,213,4.0,4.0,88,0.00,,,0.00,0,Wunderground v.1.15,2013-04-25 09:20:00,
2013-04-25 04:30:00,31.9,28.8,30.22,West,273,4.0,4.0,88,0.00,,,0.00,0,Wunderground v.1.15,2013-04-25 09:30:00,
2013-04-25 04:40:00,32.0,28.8,30.22,WSW,257,4.0,6.0,88,0.00,,,0.00,0,Wunderground v.1.15,2013-04-25 09:40:00,
2013-04-25 04:50:00,31.8,28.7,30.22,WNW,286,4.0,4.0,88,0.00,,,0.00,0,Wunderground v.1.15,2013-04-25 09:50:00,
2013-04-25 05:00:00,31.8,28.7,30.23,WNW,290,5.0,5.0,88,0.00,,,0.00,0,Wunderground v.1.15,2013-04-25 10:00:00,
2013-04-25 05:10:00,31.6,28.5,30.23,West,280,5.0,5.0,88,0.00,,,0.00,0,Wunderground v.1.15,2013-04-25 10:10:00,
2013-04-25 05:20:00,31.4,28.3,30.23,WNW,288,4.0,5.0,88,0.00,,,0.00,0,Wunderground v.1.15,2013-04-25 10:20:00,
2013-04-25 05:30:00,31.2,28.1,30.23,West,279,3.0,3.0,88,0.00,,,0.00,0,Wunderground v.1.15,2013-04-25 10:30:00,
2013-04-25 05:40:00,31.0,27.9,30.24,WSW,250,2.0,4.0,88,0.00,,,0.00,0,Wunderground v.1.15,2013-04-25 10:40:00,
2013-04-25 05:50:00,30.8,27.7,30.25,West,267,3.0,3.0,88,0.00,,,0.00,0,Wunderground v.1.15,2013-04-25 10:50:00,
2013-04-25 06:00:00,30.5,27.4,30.25,West,275,3.0,3.0,88,0.00,,,0.00,0,Wunderground v.1.15,2013-04-25 11:00:00,
2013-04-25 06:10:00,30.2,27.3,30.25,West,259,3.0,3.0,89,0.00,,,0.00,0,Wunderground v.1.15,2013-04-25 11:10:00,
2013-04-25 06:20:00,30.2,27.3,30.25,WSW,252,2.0,2.0,89,0.00,,,0.00,0,Wunderground v.1.15,2013-04-25 11:20:00,
2013-04-25 06:30:00,30.0,27.2,30.25,West,269,2.0,2.0,89,0.00,,,0.00,7,Wunderground v.1.15,2013-04-25 11:30:00,
2013-04-25 06:40:00,29.8,27.0,30.25,WSW,252,2.0,2.0,89,0.00,,,0.00,12,Wunderground v.1.15,2013-04-25 11:40:00,
2013-04-25 06:50:00,29.8,27.0,30.26,WSW,246,2.0,2.0,89,0.00,,,0.00,19,Wunderground v.1.15,2013-04-25 11:50:00,
2013-04-25 07:00:00,30.2,27.1,30.26,West,279,3.0,3.0,88,0.00,,,0.00,25,Wunderground v.1.15,2013-04-25 12:00:00,
2013-04-25 07:10:00,30.5,27.4,30.27,WNW,284,3.0,3.0,88,0.00,,,0.00,30,Wunderground v.1.15,2013-04-25 12:10:00,
2013-04-25 07:20:00,30.7,27.3,30.27,West,281,3.0,3.0,87,0.00,,,0.00,35,Wunderground v.1.15,2013-04-25 12:20:00,
2013-04-25 07:30:00,31.2,27.8,30.27,WNW,299,2.0,2.0,87,0.00,,,0.00,40,Wunderground v.1.15,2013-04-25 12:30:00,
2013-04-25 07:40:00,31.9,28.2,30.27,NW,309,2.0,2.0,86,0.00,,,0.00,44,Wunderground v.1.15,2013-04-25 12:40:00,
2013-04-25 07:50:00,32.5,28.8,30.28,WNW,300,3.0,3.0,86,0.00,,,0.00,118,Wunderground v.1.15,2013-04-25 12:50:00,
2013-04-25 08:00:00,33.2,29.2,30.28,NW,312,3.0,5.0,85,0.00,,,0.00,121,Wunderground v.1.15,2013-04-25 13:00:00,
2013-04-25 08:10:00,34.0,29.7,30.28,NW,304,3.0,6.0,84,0.00,,,0.00,258,Wunderground v.1.15,2013-04-25 13:10:00,
2013-04-25 08:20:00,34.7,29.8,30.28,NW,325,4.0,4.0,82,0.00,,,0.00,294,Wunderground v.1.15,2013-04-25 13:20:00,
2013-04-25 08:30:00,35.4,29.8,30.28,WNW,294,5.0,5.0,80,0.00,,,0.00,329,Wunderground v.1.15,2013-04-25 13:30:00,
2013-04-25 08:40:00,36.0,30.1,30.29,NNW,334,4.0,8.0,79,0.00,,,0.00,371,Wunderground v.1.15,2013-04-25 13:40:00,
2013-04-25 08:50:00,36.5,30.6,30.29,NNW,328,5.0,5.0,79,0.00,,,0.00,404,Wunderground v.1.15,2013-04-25 13:50:00,
2013-04-25 09:00:00,37.0,30.5,30.29,NW,318,5.0,5.0,77,0.00,,,0.00,434,Wunderground v.1.15,2013-04-25 14:00:00,
2013-04-25 09:10:00,37.4,30.2,30.29,NNW,338,3.0,3.0,75,0.00,,,0.00,464,Wunderground v.1.15,2013-04-25 14:10:00,
2013-04-25 09:20:00,38.8,31.6,30.29,NNW,334,5.0,6.0,75,0.00,,,0.00,497,Wunderground v.1.15,2013-04-25 14:20:00,
2013-04-25 09:30:00,39.4,30.1,30.29,NW,319,4.0,4.0,69,0.00,,,0.00,526,Wunderground v.1.15,2013-04-25 14:30:00,
2013-04-25 09:40:00,40.2,30.5,30.29,North,355,4.0,6.0,68,0.00,,,0.00,561,Wunderground v.1.15,2013-04-25 14:40:00,
2013-04-25 10:00:00,41.5,29.8,30.29,NNW,340,4.0,5.0,63,0.00,,,0.00,619,Wunderground v.1.15,2013-04-25 15:00:00,
2013-04-25 10:10:00,42.6,31.7,30.29,WNW,295,2.0,2.0,65,0.00,,,0.00,645,Wunderground v.1.15,2013-04-25 15:10:00,
2013-04-25 10:20:00,42.8,28.6,30.29,SW,225,3.0,6.0,57,0.00,,,0.00,673,Wunderground v.1.15,2013-04-25 15:20:00,
2013-04-25 10:30:00,44.6,30.7,30.29,SW,219,4.0,4.0,58,0.00,,,0.00,700,Wunderground v.1.15,2013-04-25 15:30:00,
2013-04-25 10:40:00,44.5,30.6,30.29,SW,215,5.0,5.0,58,0.00,,,0.00,726,Wunderground v.1.15,2013-04-25 15:40:00,
2013-04-25 10:50:00,43.9,29.6,30.29,South,188,3.0,3.0,57,0.00,,,0.00,749,Wunderground v.1.15,2013-04-25 15:50:00,
2013-04-25 11:00:00,44.4,31.0,30.29,WSW,238,2.0,2.0,59,0.00,,,0.00,772,Wunderground v.1.15,2013-04-25 16:00:00,
2013-04-25 11:10:00,45.2,30.9,30.29,SSE,158,4.0,4.0,57,0.00,,,0.00,793,Wunderground v.1.15,2013-04-25 16:10:00,
2013-04-25 11:20:00,46.6,31.3,30.29,SSW,208,3.0,3.0,55,0.00,,,0.00,814,Wunderground v.1.15,2013-04-25 16:20:00,
2013-04-25 11:30:00,46.5,30.3,30.29,West,261,3.0,3.0,53,0.00,,,0.00,831,Wunderground v.1.15,2013-04-25 16:30:00,
2013-04-25 11:40:00,47.6,30.8,30.29,South,178,3.0,4.0,52,0.00,,,0.00,847,Wunderground v.1.15,2013-04-25 16:40:00,
2013-04-25 11:50:00,48.4,31.1,30.28,WNW,296,3.0,3.0,51,0.00,,,0.00,867,Wunderground v.1.15,2013-04-25 16:50:00,
2013-04-25 12:00:00,50.0,31.6,30.28,SW,233,3.0,4.0,49,0.00,,,0.00,879,Wunderground v.1.15,2013-04-25 17:00:00,
2013-04-25 12:10:00,50.0,30.0,30.28,WSW,250,4.0,4.0,46,0.00,,,0.00,889,Wunderground v.1.15,2013-04-25 17:10:00,
2013-04-25 12:20:00,52.4,32.7,30.27,WSW,246,4.0,5.0,47,0.00,,,0.00,896,Wunderground v.1.15,2013-04-25 17:20:00,
2013-04-25 12:30:00,52.5,31.2,30.27,WSW,247,5.0,5.0,44,0.00,,,0.00,912,Wunderground v.1.15,2013-04-25 17:30:00,
2013-04-25 12:40:00,52.4,30.5,30.26,SSW,206,4.0,4.0,43,0.00,,,0.00,912,Wunderground v.1.15,2013-04-25 17:40:00,
2013-04-25 12:50:00,54.0,34.7,30.26,West,279,4.0,4.0,48,0.00,,,0.00,919,Wunderground v.1.15,2013-04-25 17:50:00,
2013-04-25 13:00:00,54.9,31.6,30.25,SW,223,4.0,9.0,41,0.00,,,0.00,923,Wunderground v.1.15,2013-04-25 18:00:00,
2013-04-25 13:10:00,55.1,31.2,30.25,South,181,5.0,5.0,40,0.00,,,0.00,921,Wunderground v.1.15,2013-04-25 18:10:00,
2013-04-25 13:20:00,54.6,31.3,30.25,SE,138,6.0,8.0,41,0.00,,,0.00,925,Wunderground v.1.15,2013-04-25 18:20:00,
2013-04-25 13:30:00,56.1,30.2,30.24,South,188,5.0,10.0,37,0.00,,,0.00,925,Wunderground v.1.15,2013-04-25 18:30:00,
2013-04-25 13:40:00,58.4,32.9,30.23,WSW,237,7.0,8.0,38,0.00,,,0.00,921,Wunderground v.1.15,2013-04-25 18:40:00,
2013-04-25 13:50:00,58.5,33.0,30.23,WSW,257,7.0,7.0,38,0.00,,,0.00,918,Wunderground v.1.15,2013-04-25 18:50:00,
2013-04-25 14:00:00,59.1,32.1,30.22,WSW,248,7.0,12.0,36,0.00,,,0.00,902,Wunderground v.1.15,2013-04-25 19:00:00,
2013-04-25 14:10:00,59.4,33.8,30.22,South,179,9.0,10.0,38,0.00,,,0.00,893,Wunderground v.1.15,2013-04-25 19:10:00,
2013-04-25 14:20:00,58.8,33.2,30.22,WSW,238,10.0,10.0,38,0.00,,,0.00,766,Wunderground v.1.15,2013-04-25 19:20:00,
2013-04-25 14:30:00,58.2,32.0,30.22,SW,234,8.0,8.0,37,0.00,,,0.00,570,Wunderground v.1.15,2013-04-25 19:30:00,
2013-04-25 14:40:00,58.7,33.1,30.21,SSW,196,8.0,9.0,38,0.00,,,0.00,622,Wunderground v.1.15,2013-04-25 19:40:00,
2013-04-25 14:50:00,58.7,31.8,30.21,SSW,204,10.0,11.0,36,0.00,,,0.00,863,Wunderground v.1.15,2013-04-25 19:50:00,
2013-04-25 15:00:00,59.3,32.3,30.20,SSW,198,10.0,10.0,36,0.00,,,0.00,847,Wunderground v.1.15,2013-04-25 20:00:00,
2013-04-25 15:10:00,60.1,32.3,30.20,South,185,10.0,13.0,35,0.00,,,0.00,828,Wunderground v.1.15,2013-04-25 20:10:00,
2013-04-25 15:20:00,59.8,32.8,30.19,SW,223,9.0,10.0,36,0.00,,,0.00,814,Wunderground v.1.15,2013-04-25 20:20:00,
2013-04-25 15:30:00,60.2,32.4,30.18,SW,218,7.0,18.0,35,0.00,,,0.00,798,Wunderground v.1.15,2013-04-25 20:30:00,
2013-04-25 15:40:00,61.2,32.6,30.18,SSW,207,10.0,13.0,34,0.00,,,0.00,766,Wunderground v.1.15,2013-04-25 20:40:00,
2013-04-25 15:50:00,61.3,32.7,30.17,WSW,252,8.0,11.0,34,0.00,,,0.00,744,Wunderground v.1.15,2013-04-25 20:50:00,
2013-04-25 16:00:00,61.5,32.8,30.16,SSW,206,9.0,11.0,34,0.00,,,0.00,715,Wunderground v.1.15,2013-04-25 21:00:00,
2013-04-25 16:10:00,61.3,34.1,30.15,SSW,204,10.0,13.0,36,0.00,,,0.00,680,Wunderground v.1.15,2013-04-25 21:10:00,
2013-04-25 16:20:00,62.3,32.8,30.15,SW,226,10.0,10.0,33,0.00,,,0.00,663,Wunderground v.1.15,2013-04-25 21:20:00,
2013-04-25 16:30:00,62.3,32.8,30.15,SSE,164,10.0,13.0,33,0.00,,,0.00,636,Wunderground v.1.15,2013-04-25 21:30:00,
2013-04-25 16:40:00,61.8,33.1,30.14,SSE,150,10.0,10.0,34,0.00,,,0.00,610,Wunderground v.1.15,2013-04-25 21:40:00,
2013-04-25 16:50:00,62.4,32.9,30.14,South,181,10.0,13.0,33,0.00,,,0.00,580,Wunderground v.1.15,2013-04-25 21:50:00,
2013-04-25 17:00:00,62.9,34.1,30.13,South,174,11.0,15.0,34,0.00,,,0.00,550,Wunderground v.1.15,2013-04-25 22:00:00,
2013-04-25 17:10:00,62.9,32.6,30.13,South,180,12.0,15.0,32,0.00,,,0.00,524,Wunderground v.1.15,2013-04-25 22:10:00,
2013-04-25 17:20:00,62.9,32.6,30.13,SSW,210,12.0,12.0,32,0.00,,,0.00,489,Wunderground v.1.15,2013-04-25 22:20:00,
2013-04-25 17:30:00,63.0,34.2,30.13,South,178,15.0,15.0,34,0.00,,,0.00,457,Wunderground v.1.15,2013-04-25 22:30:00,
2013-04-25 17:40:00,63.2,33.6,30.12,SSE,151,13.0,13.0,33,0.00,,,0.00,425,Wunderground v.1.15,2013-04-25 22:40:00,
2013-04-25 17:50:00,62.9,34.1,30.12,SSE,155,14.0,14.0,34,0.00,,,0.00,390,Wunderground v.1.15,2013-04-25 22:50:00,
2013-04-25 18:00:00,62.9,32.6,30.12,South,174,15.0,15.0,32,0.00,,,0.00,355,Wunderground v.1.15,2013-04-25 23:00:00,
2013-04-25 18:10:00,62.8,33.2,30.12,South,173,14.0,14.0,33,0.00,,,0.00,323,Wunderground v.1.15,2013-04-25 23:10:00,
2013-04-25 18:20:00,63.2,33.6,30.11,SSE,166,13.0,13.0,33,0.00,,,0.00,292,Wunderground v.1.15,2013-04-25 23:20:00,
2013-04-25 18:30:00,63.2,32.8,30.11,South,177,14.0,14.0,32,0.00,,,0.00,188,Wunderground v.1.15,2013-04-25 23:30:00,
2013-04-25 18:40:00,63.2,33.6,30.10,South,186,14.0,16.0,33,0.00,,,0.00,176,Wunderground v.1.15,2013-04-25 23:40:00,
2013-04-25 18:50:00,63.0,33.4,30.10,South,188,15.0,15.0,33,0.00,,,0.00,121,Wunderground v.1.15,2013-04-25 23:50:00,
2013-04-25 19:00:00,62.7,33.9,30.10,SSE,167,15.0,15.0,34,0.00,,,0.00,107,Wunderground v.1.15,2013-04-26 00:00:00,
2013-04-25 19:10:00,62.3,34.3,30.09,South,176,14.0,15.0,35,0.00,,,0.00,56,Wunderground v.1.15,2013-04-26 00:10:00,
2013-04-25 19:20:00,61.7,34.5,30.09,South,169,15.0,15.0,36,0.00,,,0.00,37,Wunderground v.1.15,2013-04-26 00:20:00,
2013-04-25 19:30:00,61.1,34.6,30.09,SSE,166,14.0,14.0,37,0.00,,,0.00,33,Wunderground v.1.15,2013-04-26 00:30:00,
2013-04-25 19:40:00,60.5,34.7,30.09,South,169,12.0,13.0,38,0.00,,,0.00,26,Wunderground v.1.15,2013-04-26 00:40:00,
2013-04-25 19:50:00,59.9,34.9,30.09,SSE,154,11.0,13.0,39,0.00,,,0.00,19,Wunderground v.1.15,2013-04-26 00:50:00,
2013-04-25 20:00:00,59.3,35.0,30.09,SSE,157,11.0,13.0,40,0.00,,,0.00,12,Wunderground v.1.15,2013-04-26 01:00:00,
2013-04-25 20:10:00,58.6,35.0,30.09,SSE,149,10.0,10.0,41,0.00,,,0.00,5,Wunderground v.1.15,2013-04-26 01:10:00,
2013-04-25 20:20:00,58.0,35.0,30.09,SSE,150,8.0,8.0,42,0.00,,,0.00,0,Wunderground v.1.15,2013-04-26 01:20:00,
2013-04-25 20:30:00,57.5,35.2,30.09,SSE,159,10.0,15.0,43,0.00,,,0.00,0,Wunderground v.1.15,2013-04-26 01:30:00,
2013-04-25 20:40:00,56.8,35.1,30.09,SSE,150,11.0,12.0,44,0.00,,,0.00,0,Wunderground v.1.15,2013-04-26 01:40:00,
2013-04-25 20:50:00,56.3,35.2,30.09,SSE,162,10.0,11.0,45,0.00,,,0.00,0,Wunderground v.1.15,2013-04-26 01:50:00,
2013-04-25 21:00:00,55.9,35.4,30.09,SE,139,11.0,11.0,46,0.00,,,0.00,0,Wunderground v.1.15,2013-04-26 02:00:00,
2013-04-25 21:10:00,55.7,35.8,30.09,SE,137,11.0,11.0,47,0.00,,,0.00,0,Wunderground v.1.15,2013-04-26 02:10:00,
2013-04-25 21:20:00,55.3,35.4,30.09,SSE,150,11.0,11.0,47,0.00,,,0.00,0,Wunderground v.1.15,2013-04-26 02:20:00,
2013-04-25 21:30:00,55.0,35.7,30.10,SSE,157,12.0,12.0,48,0.00,,,0.00,0,Wunderground v.1.15,2013-04-26 02:30:00,
2013-04-25 21:40:00,54.6,35.8,30.10,SE,138,13.0,18.0,49,0.00,,,0.00,0,Wunderground v.1.15,2013-04-26 02:40:00,
2013-04-25 21:50:00,54.4,36.1,30.10,South,171,13.0,14.0,50,0.00,,,0.00,0,Wunderground v.1.15,2013-04-26 02:50:00,
2013-04-25 22:00:00,54.4,36.1,30.10,SE,144,12.0,12.0,50,0.00,,,0.00,0,Wunderground v.1.15,2013-04-26 03:00:00,
2013-04-25 22:10:00,54.1,36.4,30.10,SSE,166,13.0,15.0,51,0.00,,,0.00,0,Wunderground v.1.15,2013-04-26 03:10:00,
2013-04-25 22:20:00,53.6,36.4,30.11,SSE,165,13.0,13.0,52,0.00,,,0.00,0,Wunderground v.1.15,2013-04-26 03:20:00,
2013-04-25 22:30:00,53.2,36.5,30.11,South,178,13.0,13.0,53,0.00,,,0.00,0,Wunderground v.1.15,2013-04-26 03:30:00,
2013-04-25 22:40:00,52.9,36.2,30.10,SSE,148,11.0,11.0,53,0.00,,,0.00,0,Wunderground v.1.15,2013-04-26 03:40:00,
2013-04-25 22:50:00,52.6,36.4,30.10,SE,139,11.0,11.0,54,0.00,,,0.00,0,Wunderground v.1.15,2013-04-26 03:50:00,
2013-04-25 23:00:00,52.3,36.6,30.10,SE,138,11.0,11.0,55,0.00,,,0.00,0,Wunderground v.1.15,2013-04-26 04:00:00,
2013-04-25 23:10:00,52.2,36.5,30.10,SE,140,12.0,12.0,55,0.00,,,0.00,0,Wunderground v.1.15,2013-04-26 04:10:00,
2013-04-25 23:20:00,52.3,36.6,30.10,SSE,161,12.0,12.0,55,0.00,,,0.00,0,Wunderground v.1.15,2013-04-26 04:20:00,
2013-04-25 23:30:00,52.1,36.9,30.09,SSE,158,13.0,13.0,56,0.00,,,0.00,0,Wunderground v.1.15,2013-04-26 04:30:00,
2013-04-25 23:40:00,51.8,37.0,30.09,SSE,163,13.0,15.0,57,0.00,,,0.00,0,Wunderground v.1.15,2013-04-26 04:40:00,
2013-04-25 23:50:00,51.4,37.1,30.09,SSE,164,13.0,13.0,58,0.00,,,0.00,0,Wunderground v.1.15,2013-04-26 04:50:00,